Regional Weather Roundup
Issued by NWS

Home | Current Version | Previous Version | Text Only | Print | Product List | Glossary On
Versions: 1 2 3 4 5 6 7 8 9 10 11 12 13 14 15 16 17 18 19 20 21 22 23 24 25 26 27 28 29 30 31 32 33 34 35 36 37 38 39 40 41 42 43 44 45 46 47 48 49 50
000
ASUS43 KOAX 030510
RWRNE

WEATHER ROUNDUP FOR NEBRASKA
NATIONAL WEATHER SERVICE OMAHA NE
1200 AM CDT WED SEP 03 2014

NOTES: SATELLITE DATA IS BEING USED TO AUGMENT CLOUD COVER ABOVE
       12000 FEET.
       "FAIR" INDICATES FEW OR NO CLOUDS BELOW 12,000 FEET WITH NO
       SIGNIFICANT WEATHER AND/OR OBSTRUCTIONS TO VISIBILITY.

  * THESE STATIONS DO NOT REPORT WEATHER SUCH AS RAIN...SNOW OR FOG.

NEZ001>004-019>022-054>056-030600-
NEBRASKA PANHANDLE

CITY           SKY/WX    TMP DP  RH WIND       PRES   REMARKS
SCOTTSBLUFF    CLEAR     62  53  72 SE6       29.84F
ALLIANCE       CLEAR     59  54  83 SE8       29.84F
CHADRON        CLEAR     56  50  80 CALM      29.77F
KIMBALL        CLEAR     60  52  73 SW5       29.91F
SIDNEY         CLEAR     66  53  63 S9        29.92S
$$

NEZ057>060-069>072-079>082-030600-
SOUTHWEST NEBRASKA

CITY           SKY/WX    TMP DP  RH WIND       PRES   REMARKS
NORTH PLATTE   CLEAR     72  64  76 S17       29.88R
IMPERIAL       CLEAR     71  61  70 S13       29.91R
LEXINGTON      CLEAR     68  65  89 SE6       29.90S
MCCOOK         CLEAR     71  65  81 S7        29.91S
OGALLALA       CLEAR     69  60  75 S15       29.88S
$$

NEZ005>010-023>029-035>040-094-030600-
NORTH CENTRAL NEBRASKA

CITY           SKY/WX    TMP DP  RH WIND       PRES   REMARKS
VALENTINE      CLEAR     71  59  65 S16       29.81F
AINSWORTH      CLEAR     67  59  75 S14       29.84S
BROKEN BOW     CLEAR     69  62  78 S13       29.89F
O`NEILL        PTCLDY    68  62  79 SE10      29.87S
ORD            CLEAR     67  60  78 S8        29.88S
THEDFORD       CLEAR     72  63  73 S18G26    29.86F
$$

NEZ041-046>049-061>064-073>077-083>087-030600-
SOUTH CENTRAL NEBRASKA

CITY           SKY/WX    TMP DP  RH WIND       PRES   REMARKS
GRAND ISLAND   CLEAR     68  60  75 SE8       29.91F
AURORA         CLEAR     64  61  90 SE6       29.92S
HASTINGS       CLEAR     70  59  68 SE9       29.91F
HEBRON         CLEAR     66  60  81 CALM      29.92S
HOLDREGE       CLEAR     64  61  90 CALM      29.92S
KEARNEY *      CLEAR     66  61  82 SE9       29.92S
YORK           CLEAR     66 N/A N/A SE9       29.92F
$$

NEZ011>018-030>034-042>045-030600-
NORTHEAST NEBRASKA

CITY           SKY/WX    TMP DP  RH WIND       PRES   REMARKS
NORFOLK        CLEAR     65  58  78 SE7       29.90F
ALBION         CLEAR     66  58  77 S9        29.90F
BLAIR          CLEAR     67  58  73 SE7       29.93F
FREMONT        CLEAR     67  60  79 SE7       29.92F
TEKAMAH        CLEAR     62  60  93 SE5       29.92F
WAYNE          CLEAR     64  59  85 S7        29.91S
$$

NEZ050>053-065>068-078-088>093-030600-
SOUTHEAST NEBRASKA

CITY           SKY/WX    TMP DP  RH WIND       PRES   REMARKS
LINCOLN        CLEAR     70  60  70 SE9       29.93F
OMAHA EPPLEY   CLEAR     69  57  65 S5        29.93F
BEATRICE       CLEAR     67  60  78 E5        29.93F
FALLS CITY     CLEAR     67  64  90 SE3       29.95R
NEBRASKA CITY  CLEAR     65  63  94 SE5       29.95S
PLATTSMOUTH    CLEAR     66  60  81 SE6       29.94S
$$

NEZ044-045-051>053-067-030600-
OMAHA AREA

CITY           SKY/WX    TMP DP  RH WIND       PRES   REMARKS
OMAHA EPPLEY   CLEAR     69  57  65 S5        29.93F
BLAIR          CLEAR     67  58  73 SE7       29.93F
FREMONT        CLEAR     67  60  79 SE7       29.92F
MILLARD        CLEAR     66  60  80 CALM      29.93S
OFFUTT AFB     CLEAR     61  61 100 E6        29.93F
PLATTSMOUTH    CLEAR     66  60  81 SE6       29.94S
WAHOO          FAIR      62  58  86 SE6       29.92F
$$


USA.gov is the U.S. government's official web portal to all federal, state and local government web resources and services.